User: anonymous   Login
Location: Unspecified
(0.0000°N, 0.0000°E)
Time: 10:35:38
(UTC+02:00)
Language:

JASON 3 - Orbit

View from above orbital plane
View from above orbital plane
View from above satellite
View from above satellite

Ground track
Ground track

The orbit data is extracted from the following two-line orbital elements,

1 41240U 16002A   21130.88109413 -.00000059  00000-0  70429-5 0  9993
2 41240  66.0434  45.0576 0007907 273.8091  86.2020 12.80929087248374
Epoch (UTC): 10 May 2021 21:08:46
Eccentricity: 0.0007907
inclination: 66.0434°
perigee height: 1331 km
apogee height: 1344 km
right ascension of ascending node: 45.0576°
argument of perigee: 273.8091°
revolutions per day: 12.80929087
mean anomaly at epoch: 86.2020°
orbit number at epoch: 24837

The dashed part of the orbit path shows where the satellite is in the earth's shadow,  

DLR